Weather History for Billings, MT

Change the Weather History Date:

Friday, March 23, 2012

  Actual Average Record
Temperature  
Mean Temperature 9 °C 4 °C  
Max Temperature 16 °C 11 °C 25 °C (1993)
Min Temperature 2 °C -2 °C -22 °C (1965)
Degree Days  
Heating Degree Days 17 25  
Month to date heating degree days 440 651  
Since 1 July heating degree days 4948 5616  
Cooling Degree Days 0 0  
Month to date cooling degree days 0 0  
Year to date cooling degree days 0 0  
Moisture  
Dew Point 0 °C    
Average Humidity 57    
Maximum Humidity 76    
Minimum Humidity 37    
Precipitation  
Precipitation 0.00 mm 0.76 mm 0.97 mm (1994)
Month to date precipitation 0.70 0.71  
Year to date precipitation 1.55 1.67  
Snow  
Snow 0.00 cm 0.76 cm 13.46 cm (1994)
Month to date snowfall 5.9 7.4  
Since 1 July snowfall 34.7 41.9  
Snow Depth 0.00 cm    
Sea Level Pressure  
Sea Level Pressure 1012 hPa    
Wind  
Wind Speed 12 km/h (NNE)    
Max Wind Speed 34 km/h    
Max Gust Speed 47 km/h    
Visibility 16 kilometers    
Events      
T = Trace of Precipitation, MM = Missing Value Source: NWS Daily Summary

Daily Weather History Graph

Daily Weather History Graph

Search for Another Location

Airport:

Trip Planner

Search our weather history database for the weather conditions in past years. The results will help you decide how hot, cold, wet, or windy it might be!

Date:

Astronomy

Mar. 23, 2012 Rise Set
Actual Time 7:10 AM MDT 7:31 PM MDT
Civil Twilight 6:40 AM MDT 8:01 PM MDT
Nautical Twilight 6:05 AM MDT 8:36 PM MDT
Astronomical Twilight 5:29 AM MDT 9:12 PM MDT
Moon 7:14 AM MDT (3/23) 9:04 PM MDT (3/23)
Length of Visible Light 13h 20m
Length of Day
12h 21m
New Moon, 1% of the Moon is Illuminated
Mar 23
New Moon
Mar 30
First Quarter
Apr 6
Full
Apr 13
Last Quarter
Apr 21
New

Hourly Weather History & Observations

Time (MDT) Temp. Windchill Dew Point Humidity Pressure Visibility Wind Dir Wind Speed Gust Speed Precip Events Conditions
12:53 AM 8.9 °C - -0.6 °C 52% 1009.9 hPa 16.1 km NNE 16.7 km/h / 4.6 m/s - N/A   Clear
1:53 AM 6.7 °C 3.0 °C 0.6 °C 65% 1010.0 hPa 16.1 km NNE 22.2 km/h / 6.2 m/s - N/A   Clear
2:53 AM 5.6 °C 3.2 °C 0.0 °C 67% 1010.6 hPa 16.1 km NNE 11.1 km/h / 3.1 m/s - N/A   Clear
3:53 AM 3.9 °C 2.0 °C -0.6 °C 73% 1010.7 hPa 16.1 km WNW 7.4 km/h / 2.1 m/s - N/A   Clear
4:53 AM 2.8 °C 0.7 °C -1.1 °C 76% 1010.4 hPa 16.1 km NW 7.4 km/h / 2.1 m/s - N/A   Clear
5:53 AM 3.3 °C 0.0 °C -1.1 °C 73% 1010.7 hPa 16.1 km WNW 13.0 km/h / 3.6 m/s - N/A   Partly Cloudy
6:53 AM 2.8 °C -1.5 °C -1.7 °C 73% 1011.1 hPa 16.1 km WNW 18.5 km/h / 5.1 m/s - N/A   Partly Cloudy
7:53 AM 2.8 °C 0.7 °C -1.7 °C 73% 1011.6 hPa 16.1 km West 7.4 km/h / 2.1 m/s - N/A   Partly Cloudy
8:53 AM 5.6 °C 4.6 °C -1.1 °C 62% 1011.8 hPa 16.1 km West 5.6 km/h / 1.5 m/s - N/A   Partly Cloudy
9:53 AM 7.8 °C - -1.1 °C 54% 1011.3 hPa 16.1 km Calm Calm - N/A   Partly Cloudy
10:53 AM 8.9 °C - -0.6 °C 52% 1010.8 hPa 16.1 km North 5.6 km/h / 1.5 m/s - N/A   Partly Cloudy
11:53 AM 10.0 °C - -0.6 °C 48% 1010.7 hPa 16.1 km Variable 7.4 km/h / 2.1 m/s - N/A   Partly Cloudy
12:53 PM 11.7 °C - -0.6 °C 43% 1009.9 hPa 16.1 km NNE 11.1 km/h / 3.1 m/s - N/A   Partly Cloudy
1:53 PM 12.8 °C - 0.6 °C 43% 1009.8 hPa 16.1 km NE 13.0 km/h / 3.6 m/s - N/A   Partly Cloudy
2:53 PM 13.9 °C - 0.6 °C 40% 1009.4 hPa 16.1 km East 18.5 km/h / 5.1 m/s - N/A   Scattered Clouds
3:53 PM 13.9 °C - 0.6 °C 40% 1009.5 hPa 16.1 km NE 18.5 km/h / 5.1 m/s - N/A   Scattered Clouds
4:53 PM 15.0 °C - 0.6 °C 38% 1009.6 hPa 16.1 km NE 13.0 km/h / 3.6 m/s - N/A   Scattered Clouds
5:53 PM 14.4 °C - 1.7 °C 42% 1010.6 hPa 16.1 km ENE 16.7 km/h / 4.6 m/s - N/A   Scattered Clouds
6:53 PM 12.2 °C - 1.7 °C 49% 1011.9 hPa 16.1 km NE 25.9 km/h / 7.2 m/s - N/A   Scattered Clouds
7:53 PM 7.8 °C 4.1 °C 0.0 °C 58% 1014.2 hPa 16.1 km NNE 25.9 km/h / 7.2 m/s 44.4 km/h / 12.3 m/s N/A   Partly Cloudy
8:53 PM 5.0 °C 0.8 °C 0.0 °C 70% 1016.1 hPa 16.1 km NNE 22.2 km/h / 6.2 m/s - N/A   Clear
9:53 PM 3.9 °C 0.4 °C -0.6 °C 73% 1016.9 hPa 16.1 km NE 14.8 km/h / 4.1 m/s - N/A   Clear
10:53 PM 3.9 °C - -0.6 °C 73% 1018.6 hPa 16.1 km Calm Calm - N/A   Mostly Cloudy
11:53 PM 3.3 °C 1.3 °C -0.6 °C 76% 1019.5 hPa 16.1 km NNE 7.4 km/h / 2.1 m/s - N/A   Mostly Cloudy